Regional Weather Roundup
Issued by NWS

Home | Current Version | Previous Version | Text Only | Print | Product List | Glossary On
Versions: 1 2 3 4 5 6 7 8 9 10 11 12 13 14 15 16 17 18 19 20 21 22 23 24 25 26 27 28 29 30 31 32 33 34 35 36 37 38 39 40 41 42 43 44 45 46 47 48 49 50
000
ASUS44 KFWD 271715
RWRTX
NORTH TEXAS HOURLY WEATHER ROUNDUP
NATIONAL WEATHER SERVICE FORT WORTH TX
1200 PM CDT WED AUG 27 2014

NOTE: "FAIR" INDICATES FEW OR NO CLOUDS BELOW 12,000 FEET WITH NO
SIGNIFICANT WEATHER AND/OR OBSTRUCTIONS TO VISIBILITY.

TXZ118-119-271800-
DALLAS/FORT WORTH METROPLEX

CITY           SKY/WX    TMP DP  RH WIND       PRES   REMARKS
DFW AIRPORT    MOSUNNY   90  70  51 E10       30.07S HX  95
DALLAS LOVE    MOSUNNY   89  68  49 SE5       30.07F HX  93
FTW MEACHAM    MOSUNNY   90  68  48 SE9       30.07S HX  94
DAL-EXECUTIVE  SUNNY     92  65  40 VRB6      30.07F HX  94
FTW-ALLIANCE   MOSUNNY   90  68  48 E6        30.06F HX  94
FTW-NAS-JRB    MOSUNNY   93  64  38 VRB7      30.11S HX  94
FTW-SPINKS     MOSUNNY   90  68  48 E5        30.09F HX  93
ARLINGTON      SUNNY     89  68  49 E9        30.07F HX  93
GRAND PRAIRIE  SUNNY     88  66  48 E7        30.09S HX  90
ADDISON        MOSUNNY   88  66  48 SE5       30.08F HX  90
MESQUITE       PTSUNNY   90  64  43 SE5       30.08S HX  91
LANCASTER      SUNNY     90  64  41 CALM      30.08S HX  91
$$

TXZ091>094-102>105-117-120-121-131>134-271800-
NORTH CENTRAL TEXAS

CITY           SKY/WX    TMP DP  RH WIND       PRES   REMARKS
SHRMAN/DENISON MOSUNNY   89  68  48 E5        30.09F HX  93
GAINESVILLE    SUNNY     87  69  55 E5        30.11S HX  92
BOWIE          PTSUNNY   92  67  43 E6        30.08F HX  94
BRIDGEPORT     MOSUNNY   89  64  42 CALM      30.09F HX  90
DECATUR        MOSUNNY   86  66  49 CALM      30.09F
DENTON         MOSUNNY   87  69  54 SE3       30.07F HX  91
MCKINNEY       MOSUNNY   90  68  48 SE8       30.08F HX  94
GREENVILLE     PTSUNNY   88  64  45 E3        30.09S
ROCKWALL       CLOUDY    88  69  52 SE5       30.07F HX  92
TERRELL        MOSUNNY   90  66  45 VRB6      30.08S HX  92
WAXAHACHIE     PTSUNNY   91  63  39 E8        30.09F HX  91
CLEBURNE       MOSUNNY   90  70  51 NE5G12    30.09F HX  95
GRANBURY       SUNNY     92  65  40 E7        30.08F HX  94
$$

TXZ083>090-098>101-113>116-127>130-139>142-154-155-271800-
WESTERN NORTH TEXAS

CITY           SKY/WX    TMP DP  RH WIND       PRES   REMARKS
WICHITA FALLS  MOSUNNY   90  67  46 S9        30.07F HX  93
WF-KICKAPOO    MOSUNNY   92  62  36 SE5       30.09S HX  92
VERNON         SUNNY     92  63  37 CALM      30.08F HX  93
ABILENE        PTSUNNY   93  66  40 E9        30.10F HX  96
ABILENE-DYESS  MOSUNNY   89  68  49 SE6       30.09F HX  92
BRECKENRIDGE   PTSUNNY   93  63  35 E8        30.07F HAZE    HX  94
GRAHAM         MOSUNNY   92  63  37 E6        30.06F HX  93
MINERAL WELLS  SUNNY     91  66  43 VRB5      30.06F HX  93
STEPHENVILLE   MOSUNNY   91  65  43 SE5       30.11F HX  92
COMANCHE         N/A     91  65  41 CALM      30.09S HX  93
BROWNWOOD      PTSUNNY   90  66  45 E10       30.09S HX  92
COLEMAN        SUNNY     88  65  46 CALM      30.10F
BRADY          MOSUNNY   86  66  51 VRB3      30.10F
$$

TXZ143>147-156>162-174-175-271800-
CENTRAL TEXAS

CITY           SKY/WX    TMP DP  RH WIND       PRES   REMARKS
WACO           MOSUNNY   90  67  46 VRB7      30.06S HX  93
WACO-TSTC      MOSUNNY   91  66  43 CALM      30.05F HX  94
WACO-MCGREGOR  MOSUNNY   91  66  43 E9        30.07F HX  94
HILLSBORO      SUNNY     89  65  44 N6        30.08S HX  91
CORSICANA      PTSUNNY   92  65  40 VRB7      30.08S HX  94
MEXIA          MOSUNNY   90  65  43 NE8       30.06S HX  91
HEARNE           N/A     91  66  43 E8        30.04F HX  93
CAMERON        MOSUNNY   92  69  46 E6        30.04F HX  96
TEMPLE         CLOUDY    93  66  40 E7        30.05F HX  96
KILLEEN        PTSUNNY   90  70  51 NE7       30.07F HX  95
KILLEEN-SKYLRK MOSUNNY   90  66  45 E8        30.06F HX  92
FORT HOOD      PTSUNNY   88  68  51 E3        30.06F HX  91
GATESVILLE     MOSUNNY   88  68  51 SE6       30.09F HAZE    HX  91
HAMILTON       PTSUNNY   91  66  43 E9        30.10S HX  93
LAMPASAS       PTSUNNY   89  71  55 NE7       30.08S HX  95
$$

TXZ095>097-106>112-122>126-135>138-148>153-164>167-271800-
EAST TEXAS

CITY           SKY/WX    TMP DP  RH WIND       PRES   REMARKS
PARIS          PTSUNNY   90  66  45 SE7       30.09F HX  92
SULPHUR SPRNGS MOSUNNY   88  65  46 CALM      30.10F HX  90
CLARKSVILLE    SUNNY     90  63  40 SE7       30.09S HX  91
MOUNT PLEASANT SUNNY     89  61  38 S6        30.09F
GILMER         MOSUNNY   90  64  43 E7        30.09F HX  91
MINEOLA        SUNNY     90  64  43 E5        30.09S HX  91
TYLER          SUNNY     89  62  40 VRB3      30.07F
LONGVIEW       PTSUNNY   90  59  35 E9        30.06F
MARSHALL       PTSUNNY   90  64  41 SE7       30.09F HX  92
ATHENS         SUNNY     88  63  42 E5        30.06F
PALESTINE      SUNNY     89  62  40 E10       30.08S
JACKSONVILLE   MOSUNNY   88  58  36 E8        30.10S
HENDERSON      MOSUNNY   90  61  38 E8        30.08F
NACOGDOCHES    PTSUNNY   88  64  45 SE9       30.06F
LUFKIN         PTSUNNY   90  67  46 E9        30.05F HX  93
$$

SUPPLEMENTAL OBSERVATIONS (CENTRAL)

CITY           SKY/WX    TMP DP  RH WIND       PRES   REMARKS
LAKE TEXOMA      N/A     86  66  51 NE2         N/A
CADDO GRASSLND   N/A     90  70  51 E6          N/A  HX  95
PAT MAYSE LAKE   N/A     88  66  48 N2          N/A  HX  90
GREENVILLE       N/A     90  66  45 NE8         N/A  HX  92
CEDAR HILL       N/A     93  66  40 NE3         N/A  HX  96
PALESTINE        N/A     90  64  43 E5          N/A  HX  91
LAKE LIMESTONE   N/A     91  63  38 E7          N/A  HX  92
MCGREGOR         N/A     91  68  46 NE7         N/A  HX  95
TEMPLE           N/A     90  68  48 N6G14       N/A  HX  93
$$

SUPPLEMENTAL OBSERVATIONS (WEST)

CITY           SKY/WX    TMP DP  RH WIND       PRES   REMARKS
MILLERS CREEK    N/A     91  66  43 SE7         N/A  HX  94
POSSUM KINGDOM   N/A     91  63  38 E5          N/A  HX  92
LBJ GRASSLAND    N/A     91  66  43 E6          N/A  HX  94
GRANBURY         N/A     91  64  40 E6G14       N/A  HX  93
COMANCHE         N/A     90  66  45 E5G14       N/A  HX  92
HAMBY            N/A     91  64  40 S6          N/A  HX  93
IVIE RESERVOIR   N/A     91  66  43 SE6         N/A  HX  94
COLORADO BEND    N/A     90  64  43 SE7         N/A  HX  91
$$

SUPPLEMENTAL OBSERVATIONS (EAST)

CITY           SKY/WX    TMP DP  RH WIND       PRES   REMARKS
CLARKSVILLE      N/A     90  64  43 SE6         N/A  HX  91
TEXARKANA        N/A     91  64  40 SE1         N/A  HX  93
LINDEN           N/A     91  66  43 E2          N/A  HX  94
GILMER           N/A     91  63  38 E6          N/A  HX  92
HENDERSON        N/A     90  64  43 E8          N/A  HX  91
LUFKIN           N/A     91  68  46 MISG        N/A  HX  95
N SABINE NF      N/A     93  70  46 MISG        N/A  HX  99
S SABINE NF      N/A     91  72  52 NE3         N/A  HX  98
$$

SUPPLEMENTAL OBSERVATIONS ARE A COLLECTION OF AUTOMATED INSTRUMENTS
THAT ARE MAINTAINED BY A VARIETY OF FEDERAL AND STATE AGENCIES.
CERTAIN ELEMENTS...SUCH AS HUMIDITY VALUES AND SUSTAINED WIND
SPEEDS...MAY BE APPROXIMATED.



USA.gov is the U.S. government's official web portal to all federal, state and local government web resources and services.